SBI5345 UNNT-UNOO

Flight info

Callsign SBI5345
Flight time 1h 13m
Altitude 36000
Route OGAMA A308 OSNAB G828 SZ A487 URUKI A844 RUMOD RUMOD5A
Aircraft A320/M-SDE3FGHIRWY/LB1

Departure

Time 2026-04-21 08:43
Airport Novosibirsk Tolmachevo Airport (UNNT)

Arrival

Time 2026-04-21 09:57
Airport Omsk Central Airport (UNOO)
Time Latitude Longitude Altitude Speed Heading
2026-04-21 08:26 55.01130 82.67021 373 ft 0 kts 171°
2026-04-21 08:39 55.01113 82.67025 372 ft 6 kts 174°
2026-04-21 08:39 55.01087 82.66997 372 ft 4 kts 248°
2026-04-21 08:40 55.01081 82.66956 372 ft 5 kts 260°
2026-04-21 08:40 55.01095 82.66848 372 ft 14 kts 284°
2026-04-21 08:40 55.01114 82.66669 372 ft 16 kts 325°
2026-04-21 08:40 55.01230 82.66630 373 ft 14 kts 350°
2026-04-21 08:41 55.01256 82.66623 373 ft 0 kts 351°
2026-04-21 08:42 55.01302 82.66610 373 ft 12 kts 352°
2026-04-21 08:42 55.01369 82.66542 374 ft 11 kts 298°
2026-04-21 08:42 55.01366 82.66407 374 ft 18 kts 261°
2026-04-21 08:43 55.01304 82.65720 372 ft 94 kts 262°
2026-04-21 08:43 55.01176 82.64237 378 ft 150 kts 262°
2026-04-21 08:43 55.00974 82.62272 671 ft 173 kts 260°
2026-04-21 08:43 55.00764 82.60188 1306 ft 177 kts 263°
2026-04-21 08:44 55.00574 82.58024 1955 ft 189 kts 263°
2026-04-21 08:44 55.00370 82.55633 2393 ft 211 kts 263°
2026-04-21 08:44 55.00240 82.53039 3086 ft 223 kts 277°
2026-04-21 08:44 55.00918 82.50485 3602 ft 247 kts 308°
2026-04-21 08:45 55.02147 82.48312 4523 ft 254 kts 316°
2026-04-21 08:45 55.03510 82.46313 5490 ft 259 kts 318°
2026-04-21 08:45 55.04908 82.44321 5912 ft 259 kts 317°
2026-04-21 08:45 55.06295 82.42301 5997 ft 259 kts 316°
2026-04-21 08:46 55.07653 82.40252 6010 ft 257 kts 315°
2026-04-21 08:46 55.08970 82.38206 6016 ft 257 kts 315°
2026-04-21 08:46 55.10313 82.36077 6017 ft 257 kts 314°
2026-04-21 08:46 55.11613 82.33987 6013 ft 256 kts 314°
2026-04-21 08:47 55.12926 82.31867 6011 ft 257 kts 314°
2026-04-21 08:47 55.14234 82.29741 6009 ft 257 kts 314°
2026-04-21 08:47 55.15541 82.27604 6016 ft 257 kts 314°
2026-04-21 08:47 55.16847 82.25462 6013 ft 256 kts 313°
2026-04-21 08:48 55.18133 82.23351 6023 ft 256 kts 314°
2026-04-21 08:48 55.19437 82.21213 6016 ft 256 kts 314°
2026-04-21 08:48 55.20738 82.19071 6018 ft 256 kts 311°
2026-04-21 08:48 55.21815 82.16613 6049 ft 254 kts 297°
2026-04-21 08:49 55.22549 82.13779 6723 ft 259 kts 291°
2026-04-21 08:49 55.23258 82.10873 6970 ft 256 kts 291°
2026-04-21 08:49 55.23972 82.08009 7044 ft 255 kts 292°
2026-04-21 08:49 55.24681 82.05178 7046 ft 254 kts 292°
2026-04-21 08:50 55.25443 82.02111 7050 ft 293 kts 292°
2026-04-21 08:50 55.26293 81.98661 7050 ft 328 kts 292°
2026-04-21 08:50 55.27237 81.94822 7050 ft 352 kts 292°
2026-04-21 08:50 55.28218 81.90834 7051 ft 356 kts 292°
2026-04-21 08:51 55.29204 81.86831 7044 ft 356 kts 292°
2026-04-21 08:51 55.30178 81.82863 7042 ft 343 kts 292°
2026-04-21 08:51 55.31082 81.79182 7045 ft 319 kts 292°
2026-04-21 08:51 55.31930 81.75708 7046 ft 297 kts 291°
2026-04-21 08:52 55.32712 81.72500 7048 ft 278 kts 291°
2026-04-21 08:52 55.33446 81.69475 7049 ft 260 kts 291°
2026-04-21 08:52 55.34146 81.66581 7050 ft 255 kts 291°
2026-04-21 08:52 55.34606 81.64671 7053 ft 254 kts 291°
2026-04-21 08:53 55.37476 81.52756 7054 ft 254 kts 291°
2026-04-21 08:54 55.38139 81.49995 7053 ft 253 kts 291°
2026-04-21 08:54 55.38832 81.47100 7057 ft 254 kts 291°
2026-04-21 08:54 55.39519 81.44236 7058 ft 254 kts 291°
2026-04-21 08:54 55.40202 81.41390 7058 ft 253 kts 291°
2026-04-21 08:55 55.40883 81.38558 7058 ft 254 kts 291°
2026-04-21 08:55 55.41579 81.35662 7060 ft 254 kts 291°
2026-04-21 08:55 55.42259 81.32836 7062 ft 254 kts 291°
2026-04-21 08:55 55.42952 81.29941 7060 ft 253 kts 291°
2026-04-21 08:56 55.43626 81.27125 7056 ft 254 kts 291°
2026-04-21 08:56 55.44313 81.24256 7060 ft 253 kts 291°
2026-04-21 08:56 55.44996 81.21400 7060 ft 254 kts 291°
2026-04-21 08:57 55.46365 81.15647 7064 ft 253 kts 291°
2026-04-21 08:57 55.46988 81.12754 7067 ft 253 kts 283°
2026-04-21 08:57 55.47404 81.09687 7653 ft 259 kts 282°
2026-04-21 08:57 55.47827 81.06617 8751 ft 258 kts 282°
2026-04-21 08:58 55.48255 81.03538 9739 ft 260 kts 282°
2026-04-21 08:58 55.48686 81.00446 10457 ft 271 kts 283°
2026-04-21 08:58 55.49153 80.97086 10770 ft 294 kts 283°
2026-04-21 08:58 55.49657 80.93444 11332 ft 307 kts 283°
2026-04-21 08:59 55.50164 80.89762 12114 ft 311 kts 283°
2026-04-21 08:59 55.50674 80.86041 12985 ft 313 kts 283°
2026-04-21 08:59 55.51187 80.82296 13817 ft 315 kts 283°
2026-04-21 08:59 55.51701 80.78522 14556 ft 318 kts 283°
2026-04-21 09:00 55.52218 80.74718 15285 ft 320 kts 283°
2026-04-21 09:00 55.52737 80.70880 16006 ft 323 kts 283°
2026-04-21 09:00 55.53260 80.67010 16744 ft 325 kts 283°
2026-04-21 09:00 55.53789 80.63115 17451 ft 328 kts 283°
2026-04-21 09:01 55.54320 80.59183 18082 ft 330 kts 283°
2026-04-21 09:01 55.54850 80.55211 18644 ft 333 kts 283°
2026-04-21 09:01 55.55384 80.51221 19248 ft 336 kts 283°
2026-04-21 09:01 55.55925 80.47190 19839 ft 338 kts 283°
2026-04-21 09:02 55.56467 80.43139 20433 ft 340 kts 283°
2026-04-21 09:02 55.57008 80.39067 21009 ft 342 kts 283°
2026-04-21 09:02 55.57552 80.34954 21594 ft 344 kts 283°
2026-04-21 09:03 55.58634 80.26719 22707 ft 349 kts 283°
2026-04-21 09:03 55.59184 80.22523 23246 ft 351 kts 283°
2026-04-21 09:03 55.59738 80.18310 23764 ft 353 kts 283°
2026-04-21 09:03 55.60295 80.14055 24215 ft 356 kts 283°
2026-04-21 09:04 55.60853 80.09784 24670 ft 357 kts 283°
2026-04-21 09:04 55.61409 80.05490 25119 ft 359 kts 283°
2026-04-21 09:04 55.61965 80.01177 25562 ft 361 kts 283°
2026-04-21 09:04 55.62521 79.96849 25981 ft 362 kts 283°
2026-04-21 09:05 55.62941 79.92438 26401 ft 365 kts 275°
2026-04-21 09:05 55.62895 79.87928 26809 ft 369 kts 266°
2026-04-21 09:05 55.62358 79.83452 27210 ft 375 kts 257°
2026-04-21 09:05 55.61614 79.79011 27617 ft 377 kts 257°
2026-04-21 09:06 55.60867 79.74551 28019 ft 379 kts 257°
2026-04-21 09:06 55.60124 79.70129 28411 ft 381 kts 257°
2026-04-21 09:06 55.59366 79.65625 28796 ft 383 kts 257°
2026-04-21 09:06 55.58595 79.61052 29181 ft 385 kts 257°
2026-04-21 09:07 55.57833 79.56547 29536 ft 387 kts 257°
2026-04-21 09:07 55.57057 79.51978 29886 ft 389 kts 257°
2026-04-21 09:07 55.56276 79.47390 30217 ft 391 kts 257°
2026-04-21 09:07 55.55494 79.42792 30513 ft 392 kts 257°
2026-04-21 09:08 55.54706 79.38160 30815 ft 393 kts 257°
2026-04-21 09:08 55.53915 79.33543 31205 ft 392 kts 257°
2026-04-21 09:08 55.53124 79.28960 31667 ft 389 kts 257°
2026-04-21 09:08 55.52335 79.24404 32131 ft 387 kts 257°
2026-04-21 09:09 55.51554 79.19880 32599 ft 384 kts 257°
2026-04-21 09:09 55.50780 79.15380 33068 ft 381 kts 257°
2026-04-21 09:09 55.50009 79.10928 33530 ft 379 kts 257°
2026-04-21 09:09 55.49237 79.06503 34002 ft 376 kts 257°
2026-04-21 09:10 55.48472 79.02114 34367 ft 374 kts 257°
2026-04-21 09:10 55.47706 78.97722 34679 ft 374 kts 257°
2026-04-21 09:10 55.46941 78.93341 34951 ft 375 kts 257°
2026-04-21 09:10 55.46172 78.88950 35203 ft 376 kts 257°
2026-04-21 09:11 55.45408 78.84605 35448 ft 376 kts 257°
2026-04-21 09:11 55.44629 78.80195 35699 ft 377 kts 257°
2026-04-21 09:11 55.43850 78.75792 35930 ft 378 kts 256°
2026-04-21 09:11 55.43066 78.71370 36017 ft 378 kts 256°
2026-04-21 09:12 55.41498 78.62544 36033 ft 377 kts 256°
2026-04-21 09:12 55.39921 78.53750 36030 ft 377 kts 256°
2026-04-21 09:13 55.38343 78.44955 36022 ft 377 kts 256°
2026-04-21 09:13 55.36761 78.36171 36021 ft 377 kts 256°
2026-04-21 09:14 55.35971 78.27247 36014 ft 371 kts 273°
2026-04-21 09:14 55.36565 78.18162 36007 ft 371 kts 277°
2026-04-21 09:15 55.37193 78.09192 36008 ft 371 kts 277°
2026-04-21 09:15 55.37816 78.00191 36004 ft 371 kts 277°
2026-04-21 09:16 55.38443 77.91179 36003 ft 370 kts 277°
2026-04-21 09:16 55.39025 77.82311 35980 ft 360 kts 276°
2026-04-21 09:17 55.39620 77.73432 36018 ft 370 kts 277°
2026-04-21 09:17 55.40238 77.64420 36019 ft 372 kts 277°
2026-04-21 09:18 55.40847 77.55374 36015 ft 372 kts 277°
2026-04-21 09:18 55.41438 77.46323 36015 ft 373 kts 276°
2026-04-21 09:19 55.42024 77.37259 36012 ft 373 kts 276°
2026-04-21 09:19 55.42604 77.28193 36008 ft 372 kts 276°
2026-04-21 09:20 55.43170 77.19178 36003 ft 372 kts 276°
2026-04-21 09:20 55.43731 77.10107 36001 ft 372 kts 276°
2026-04-21 09:21 55.44291 77.01044 36000 ft 373 kts 276°
2026-04-21 09:21 55.44748 76.93486 35998 ft 373 kts 276°
2026-04-21 09:22 55.45292 76.84413 35993 ft 373 kts 276°
2026-04-21 09:22 55.45829 76.75327 35990 ft 373 kts 276°
2026-04-21 09:23 55.46364 76.66237 35989 ft 373 kts 276°
2026-04-21 09:23 55.46889 76.57132 35991 ft 373 kts 275°
2026-04-21 09:24 55.47408 76.48015 35762 ft 375 kts 275°
2026-04-21 09:24 55.47668 76.43443 35507 ft 374 kts 275°
2026-04-21 09:24 55.47922 76.38895 35258 ft 374 kts 275°
2026-04-21 09:25 55.48176 76.34334 35005 ft 373 kts 275°
2026-04-21 09:25 55.48427 76.29789 34759 ft 373 kts 275°
2026-04-21 09:25 55.48676 76.25253 34512 ft 371 kts 275°
2026-04-21 09:25 55.48924 76.20724 34267 ft 369 kts 275°
2026-04-21 09:26 55.49169 76.16236 34032 ft 366 kts 275°
2026-04-21 09:26 55.49407 76.11787 33752 ft 364 kts 275°
2026-04-21 09:26 55.49643 76.07342 33474 ft 363 kts 275°
2026-04-21 09:26 55.49875 76.02910 33197 ft 362 kts 275°
2026-04-21 09:27 55.50101 75.98486 32921 ft 361 kts 275°
2026-04-21 09:27 55.50323 75.94078 32649 ft 361 kts 275°
2026-04-21 09:27 55.50547 75.89681 32345 ft 359 kts 275°
2026-04-21 09:27 55.50771 75.85310 31833 ft 355 kts 275°
2026-04-21 09:28 55.50991 75.80992 31313 ft 352 kts 275°
2026-04-21 09:28 55.51206 75.76702 30801 ft 349 kts 275°
2026-04-21 09:28 55.51417 75.72447 30285 ft 347 kts 276°
2026-04-21 09:28 55.51623 75.68277 29768 ft 345 kts 276°
2026-04-21 09:29 55.51832 75.64031 29240 ft 341 kts 276°
2026-04-21 09:29 55.52034 75.59899 28776 ft 336 kts 276°
2026-04-21 09:29 55.52232 75.55868 28313 ft 332 kts 276°
2026-04-21 09:29 55.52428 75.51840 27861 ft 328 kts 276°
2026-04-21 09:30 55.52619 75.47840 27420 ft 324 kts 276°
2026-04-21 09:30 55.52807 75.43899 26988 ft 320 kts 276°
2026-04-21 09:30 55.52991 75.40014 26572 ft 317 kts 275°
2026-04-21 09:30 55.53170 75.36192 26161 ft 313 kts 275°
2026-04-21 09:31 55.53352 75.32345 25752 ft 311 kts 275°
2026-04-21 09:31 55.53529 75.28543 25344 ft 309 kts 275°
2026-04-21 09:31 55.53704 75.24774 24938 ft 307 kts 275°
2026-04-21 09:31 55.53877 75.21015 24529 ft 306 kts 275°
2026-04-21 09:32 55.54044 75.17277 24112 ft 305 kts 275°
2026-04-21 09:32 55.54207 75.13549 23701 ft 304 kts 275°
2026-04-21 09:32 55.54370 75.09839 23252 ft 303 kts 275°
2026-04-21 09:32 55.54536 75.06138 22804 ft 301 kts 275°
2026-04-21 09:33 55.54698 75.02512 22392 ft 299 kts 275°
2026-04-21 09:33 55.54859 74.98869 21969 ft 297 kts 275°
2026-04-21 09:33 55.55017 74.95232 21569 ft 296 kts 275°
2026-04-21 09:33 55.55173 74.91619 21159 ft 294 kts 275°
2026-04-21 09:34 55.55329 74.88021 20757 ft 293 kts 275°
2026-04-21 09:34 55.55486 74.84438 20355 ft 292 kts 275°
2026-04-21 09:34 55.55640 74.80871 19954 ft 291 kts 275°
2026-04-21 09:34 55.55792 74.77318 19560 ft 290 kts 275°
2026-04-21 09:35 55.55941 74.73769 19155 ft 289 kts 275°
2026-04-21 09:35 55.56087 74.70226 18780 ft 289 kts 274°
2026-04-21 09:35 55.56231 74.66693 18395 ft 289 kts 274°
2026-04-21 09:35 55.56373 74.63202 17980 ft 289 kts 274°
2026-04-21 09:36 55.56518 74.59674 17593 ft 287 kts 274°
2026-04-21 09:36 55.56659 74.56164 17216 ft 286 kts 274°
2026-04-21 09:36 55.56798 74.52670 16838 ft 284 kts 274°
2026-04-21 09:36 55.56936 74.49196 16482 ft 283 kts 274°
2026-04-21 09:37 55.57074 74.45727 16116 ft 282 kts 274°
2026-04-21 09:37 55.57209 74.42272 15760 ft 282 kts 274°
2026-04-21 09:37 55.57340 74.38816 15407 ft 281 kts 274°
2026-04-21 09:37 55.57471 74.35371 15046 ft 281 kts 274°
2026-04-21 09:38 55.57600 74.31959 14695 ft 281 kts 274°
2026-04-21 09:38 55.57728 74.28510 14337 ft 282 kts 273°
2026-04-21 09:38 55.57641 74.25059 13979 ft 282 kts 260°
2026-04-21 09:38 55.57069 74.21749 13612 ft 283 kts 247°
2026-04-21 09:39 55.56038 74.18780 13220 ft 285 kts 233°
2026-04-21 09:39 55.54613 74.16321 12842 ft 287 kts 223°
2026-04-21 09:39 55.53085 74.14056 12480 ft 287 kts 223°
2026-04-21 09:39 55.51564 74.11791 12105 ft 286 kts 223°
2026-04-21 09:40 55.50041 74.09521 11717 ft 286 kts 223°
2026-04-21 09:40 55.48523 74.07259 11347 ft 285 kts 223°
2026-04-21 09:40 55.47009 74.05005 10989 ft 284 kts 223°
2026-04-21 09:40 55.45497 74.02758 10588 ft 285 kts 223°
2026-04-21 09:41 55.43997 74.00538 10208 ft 285 kts 223°
2026-04-21 09:41 55.42488 73.98312 9942 ft 280 kts 223°
2026-04-21 09:41 55.41006 73.96133 9802 ft 275 kts 223°
2026-04-21 09:41 55.39533 73.93965 9452 ft 276 kts 222°
2026-04-21 09:42 55.38067 73.91803 9049 ft 275 kts 222°
2026-04-21 09:42 55.36603 73.89642 8660 ft 274 kts 222°
2026-04-21 09:42 55.35152 73.87500 8266 ft 272 kts 222°
2026-04-21 09:42 55.33708 73.85368 7891 ft 270 kts 221°
2026-04-21 09:43 55.32276 73.83256 7513 ft 268 kts 221°
2026-04-21 09:43 55.30870 73.81131 7117 ft 266 kts 226°
2026-04-21 09:43 55.29762 73.78587 6851 ft 260 kts 240°
2026-04-21 09:43 55.28938 73.75771 6702 ft 259 kts 242°
2026-04-21 09:44 55.28115 73.72961 6551 ft 259 kts 242°
2026-04-21 09:44 55.27291 73.70161 6410 ft 258 kts 242°
2026-04-21 09:44 55.26478 73.67404 6254 ft 258 kts 242°
2026-04-21 09:44 55.25653 73.64608 6111 ft 258 kts 242°
2026-04-21 09:45 55.24829 73.61815 5955 ft 258 kts 241°
2026-04-21 09:45 55.24005 73.59031 5797 ft 257 kts 241°
2026-04-21 09:45 55.23181 73.56244 5664 ft 258 kts 241°
2026-04-21 09:45 55.22358 73.53466 5503 ft 257 kts 240°
2026-04-21 09:46 55.21534 73.50686 5365 ft 257 kts 240°
2026-04-21 09:46 55.20708 73.47899 5216 ft 258 kts 240°
2026-04-21 09:46 55.19880 73.45107 5077 ft 258 kts 240°
2026-04-21 09:46 55.19052 73.42320 4927 ft 258 kts 240°
2026-04-21 09:47 55.18221 73.39537 4768 ft 258 kts 240°
2026-04-21 09:47 55.17389 73.36747 4620 ft 258 kts 240°
2026-04-21 09:47 55.16561 73.33970 4477 ft 259 kts 239°
2026-04-21 09:47 55.15737 73.31209 4346 ft 260 kts 240°
2026-04-21 09:48 55.14897 73.28402 4260 ft 261 kts 240°
2026-04-21 09:48 55.14049 73.25584 4124 ft 262 kts 240°
2026-04-21 09:48 55.13202 73.22760 3972 ft 263 kts 239°
2026-04-21 09:48 55.12349 73.19913 3838 ft 266 kts 240°
2026-04-21 09:49 55.11476 73.17069 3666 ft 266 kts 235°
2026-04-21 09:49 55.10332 73.14544 3520 ft 265 kts 226°
2026-04-21 09:49 55.09107 73.12119 3366 ft 266 kts 226°
2026-04-21 09:49 55.07883 73.09683 3214 ft 268 kts 226°
2026-04-21 09:50 55.06659 73.07236 3055 ft 268 kts 227°
2026-04-21 09:50 55.06261 73.06440 2999 ft 268 kts 227°
2026-04-21 09:50 55.02623 73.00791 2590 ft 252 kts 197°
2026-04-21 09:51 55.00994 73.00231 2484 ft 228 kts 178°
2026-04-21 09:51 54.99448 73.00552 2393 ft 220 kts 163°
2026-04-21 09:51 54.98033 73.01143 2290 ft 203 kts 164°
2026-04-21 09:51 54.96731 73.01675 2205 ft 182 kts 164°
2026-04-21 09:52 54.95574 73.02145 2111 ft 161 kts 164°
2026-04-21 09:52 54.94553 73.02626 2056 ft 147 kts 153°
2026-04-21 09:52 54.93785 73.03682 1972 ft 139 kts 126°
2026-04-21 09:52 54.93397 73.05197 1916 ft 139 kts 101°
2026-04-21 09:53 54.93452 73.06870 1906 ft 139 kts 78°
2026-04-21 09:53 54.93678 73.08519 1899 ft 140 kts 78°
2026-04-21 09:53 54.93901 73.10170 1906 ft 140 kts 78°
2026-04-21 09:53 54.94125 73.11817 1899 ft 139 kts 79°
2026-04-21 09:54 54.94347 73.13456 1906 ft 141 kts 78°
2026-04-21 09:54 54.94578 73.15164 1917 ft 147 kts 78°
2026-04-21 09:54 54.94813 73.16904 1843 ft 148 kts 78°
2026-04-21 09:54 54.95047 73.18630 1690 ft 147 kts 78°
2026-04-21 09:55 54.95281 73.20369 1491 ft 148 kts 78°
2026-04-21 09:55 54.95515 73.22102 1283 ft 146 kts 79°
2026-04-21 09:55 54.95745 73.23805 1054 ft 146 kts 76°
2026-04-21 09:55 54.95979 73.25566 824 ft 145 kts 77°
2026-04-21 09:56 54.96217 73.27259 655 ft 144 kts 75°
2026-04-21 09:56 54.96428 73.28919 416 ft 134 kts 76°
2026-04-21 09:56 54.96623 73.30383 317 ft 115 kts 77°
2026-04-21 09:56 54.96748 73.31290 309 ft 60 kts 77°
2026-04-21 09:57 54.96813 73.31769 308 ft 31 kts 77°
2026-04-21 09:57 54.96842 73.32007 310 ft 14 kts 88°
2026-04-21 09:57 54.96769 73.32095 308 ft 14 kts 166°
2026-04-21 09:57 54.96736 73.32108 310 ft 0 kts 167°
2026-04-21 09:58 54.96728 73.32111 310 ft 4 kts 167°
2026-04-21 09:58 54.96678 73.32131 309 ft 11 kts 167°
2026-04-21 09:59 54.96588 73.32168 308 ft 13 kts 166°
2026-04-21 09:59 54.96475 73.32214 310 ft 20 kts 167°
2026-04-21 09:59 54.96361 73.32201 308 ft 17 kts 210°
2026-04-21 09:59 54.96296 73.32122 311 ft 2 kts 216°
2026-04-21 10:00 54.96273 73.32083 311 ft 8 kts 232°
2026-04-21 10:00 54.96269 73.32076 311 ft 0 kts 232°
2026-04-21 10:00 54.96269 73.32075 311 ft 1 kts 232°
2026-04-21 10:00 54.96266 73.32028 310 ft 7 kts 277°
2026-04-21 10:01 54.96301 73.31955 309 ft 7 kts 316°
2026-04-21 10:01 54.96309 73.31941 310 ft 0 kts 316°
2026-04-21 10:06 54.96129 73.31856 500 ft 1048 kts 316°
2026-04-21 10:06 54.96295 73.32082 379 ft 869 kts 316°
2026-04-21 10:07 54.96235 73.32245 369 ft 0 kts 316°
2026-04-21 10:07 54.96255 73.32034 418 ft 0 kts 316°
2026-04-21 10:07 54.96269 73.32039 427 ft 0 kts 316°
2026-04-21 10:08 54.96237 73.32091 427 ft 0 kts 316°
2026-04-21 10:08 54.96261 73.32201 427 ft 0 kts 316°
2026-04-21 10:08 54.96340 73.32070 427 ft 0 kts 316°
2026-04-21 10:08 54.96288 73.32138 580 ft 0 kts 219°
2026-04-21 10:09 54.96163 73.31826 332 ft 0 kts 219°
2026-04-21 10:09 54.96366 73.32133 331 ft 798 kts 238°
2026-04-21 10:09 54.96323 73.31897 331 ft 0 kts 225°